Cherry Point MCAS, Cunningham Field Cherry Point US
ICAO: KNKT
IATA: NKT
Category: Medium
Scheduled Services: No

Elevation: 29 ft
TransAlt. 18000 ft.

Airport Communications:
APP/DEP:29.96
APP/DEP:119.35
ATIS:24.487
CLNC DEL:125.95
GND:128.625
BASE OPS:126.2
PMSV METRO:34.35
TWR:121.3

KNKT Zoom In..

If you have problems with the map follow the link
https://www.worldairports.se/pages/airport.php?
ICAO=KNKT

Runways:

(A) RW 05L length 8491 ft width 200 ft
---- / hdg 55

(B) RW 05R length 8188 ft width 200 ft
---- / hdg 55

(C) RW 14L length 8984 ft width 200 ft
---- / hdg 145

(D) RW 14R length 8399 ft width 200 ft
---- / hdg 145

(E) RW 23L length 8188 ft width 200 ft
---- / hdg 235

(F) RW 23R length 8491 ft width 200 ft
ILS 108.90 / hdg 235

(G) RW 32L length 8399 ft width 200 ft
---- / hdg 325

(H) RW 32R length 8984 ft width 200 ft
---- / hdg 325

Location; KNKT
Day. 24 / Time. 01.21 Zulu
* Altimeter: 30.12
* Temperature: 17° c. 62.6°f.
* Wind from: KNK° Speed T kn.
Dewpoint: 16° c.
Visibility: 2 Statute Miles.
Clouds: Few 700 ft.
Clouds: Broken 2700 ft.
Clouds: Overcast 3700 ft.
Conditions: Rain.Conditions: Mist.

KNKT 240121Z 16011KT 2SM RA BR FEW007 BKN027 OVC037 17/16 A3012 RMK SFC VIS 3 P0006 T01670161


Wind From KNK°
Speed T kn.

 
 
jpsmedia.com for Web Design worldairports.se 2019   terms of use